Weather History for Mineral Point, WI

Change the Weather History Date:

Monday, February 18, 2013

  Actual Average (KLNR) Record (KLNR)
Temperature  
Mean Temperature 32 °F -  
Max Temperature 44 °F 33 °F 51 °F (1997)
Min Temperature 17 °F 18 °F -17 °F (2006)
Degree Days  
Heating Degree Days 34    
Moisture  
Dew Point 26 °F    
Average Humidity 76    
Maximum Humidity 100    
Minimum Humidity 61    
Precipitation  
Precipitation 0.00 in - - ()
Sea Level Pressure  
Sea Level Pressure 29.58 in    
Wind  
Wind Speed 15 mph (SSW)    
Max Wind Speed 24 mph    
Max Gust Speed 34 mph    
Visibility 9 miles    
Events Rain , Snow    
Averages and records for this station are not official NWS values.
T = Trace of Precipitation, MM = Missing Value Source: NWS Daily Summary

Daily Weather History Graph

Daily Weather History Graph

Search for Another Location

Airport:

Trip Planner

Search our weather history database for the weather conditions in past years. The results will help you decide how hot, cold, wet, or windy it might be!

Date:

Astronomy

Feb. 18, 2013 Rise Set
Actual Time 6:53 AM CST 5:36 PM CST
Civil Twilight 6:24 AM CST 6:05 PM CST
Nautical Twilight 5:51 AM CST 6:38 PM CST
Astronomical Twilight 5:18 AM CST 7:11 PM CST
Moon 11:18 AM CST (2/18) 1:37 AM CST (2/18)
Length of Visible Light 11h 40m
Length of Day
10h 43m
First Quarter, 58% of the Moon is Illuminated
Feb 18
First Quarter
Feb 25
Full
Mar 4
Last Quarter
Mar 11
New
Mar 19
First Quarter

Hourly Weather History & Observations

Time (CST) Temp. Windchill Dew Point Humidity Pressure Visibility Wind Dir Wind Speed Gust Speed Precip Events Conditions
12:15 AM 30.2 °F 18.1 °F 21.2 °F 69% 29.81 in 10.0 mi SE 18.4 mph - N/A   Clear
12:55 AM 30.2 °F 18.5 °F 21.2 °F 69% 29.79 in 10.0 mi SE 17.3 mph - N/A   Clear
1:15 AM 30.2 °F 18.1 °F 21.2 °F 69% 29.77 in 10.0 mi SE 18.4 mph 24.2 mph N/A   Clear
1:35 AM 30.2 °F 17.8 °F 23.0 °F 75% 29.76 in 10.0 mi SE 19.6 mph 24.2 mph N/A   Clear
1:55 AM 30.2 °F 17.1 °F 23.0 °F 75% 29.75 in 10.0 mi SSE 21.9 mph 27.6 mph N/A   Clear
2:15 AM 30.2 °F 17.8 °F 23.0 °F 75% 29.73 in 10.0 mi SE 19.6 mph 25.3 mph N/A   Clear
2:35 AM 30.2 °F 17.4 °F 23.0 °F 75% 29.73 in 10.0 mi SSE 20.7 mph - N/A   Clear
2:55 AM 30.2 °F 18.5 °F 23.0 °F 75% 29.71 in 10.0 mi SE 17.3 mph - N/A   Clear
3:15 AM 32.0 °F 20.5 °F 23.0 °F 69% 29.70 in 10.0 mi SE 18.4 mph - N/A   Clear
3:35 AM 32.0 °F 20.5 °F 23.0 °F 69% 29.68 in 10.0 mi SSE 18.4 mph - N/A   Clear
3:55 AM 32.0 °F 20.1 °F 23.0 °F 69% 29.67 in 10.0 mi SSE 19.6 mph 24.2 mph N/A   Clear
4:15 AM 32.0 °F 20.5 °F 23.0 °F 69% 29.66 in 10.0 mi SSE 18.4 mph - N/A   Clear
4:35 AM 32.0 °F 20.8 °F 23.0 °F 69% 29.65 in 10.0 mi SSE 17.3 mph - N/A   Clear
4:55 AM 32.0 °F 21.2 °F 24.8 °F 75% 29.65 in 10.0 mi SSE 16.1 mph - N/A   Clear
5:15 AM 32.0 °F 21.2 °F 24.8 °F 75% 29.65 in 10.0 mi SSE 16.1 mph - N/A   Clear
5:35 AM 30.2 °F 19.8 °F 24.8 °F 80% 29.64 in 10.0 mi SSE 13.8 mph - N/A   Clear
5:55 AM 32.0 °F 22.5 °F 24.8 °F 75% 29.64 in 10.0 mi SSE 12.7 mph - N/A   Clear
6:15 AM 30.2 °F 20.2 °F 24.8 °F 80% 29.63 in 10.0 mi SE 12.7 mph - N/A   Clear
6:35 AM 30.2 °F 20.2 °F 24.8 °F 80% 29.62 in 10.0 mi SSE 12.7 mph - N/A   Clear
6:55 AM 32.0 °F 22.1 °F 24.8 °F 75% 29.62 in 10.0 mi SSE 13.8 mph - N/A   Clear
7:35 AM 32.0 °F 22.5 °F 26.6 °F 80% 29.61 in 10.0 mi SSE 12.7 mph - N/A   Clear
8:15 AM 32.0 °F 23.6 °F 26.6 °F 80% 29.61 in 10.0 mi SE 10.4 mph - N/A   Clear
8:55 AM 32.0 °F 23.0 °F 28.4 °F 87% 29.59 in 10.0 mi SSE 11.5 mph - N/A   Clear
9:15 AM 33.8 °F 24.3 °F 28.4 °F 81% 29.58 in 10.0 mi SSE 13.8 mph - N/A   Clear
9:35 AM 33.8 °F 24.3 °F 28.4 °F 81% 29.57 in 10.0 mi SSE 13.8 mph - N/A   Clear
9:55 AM 35.6 °F 27.1 °F 30.2 °F 81% 29.57 in 10.0 mi SSE 12.7 mph - N/A   Clear
10:15 AM 37.4 °F 30.3 °F 30.2 °F 75% 29.58 in 10.0 mi SSE 10.4 mph - N/A   Clear
10:35 AM 37.4 °F 30.8 °F 30.2 °F 75% 29.57 in 10.0 mi SSE 9.2 mph - N/A   Clear
10:55 AM 37.4 °F 32.1 °F 30.2 °F 75% 29.56 in 10.0 mi SSE 6.9 mph - N/A   Clear
11:15 AM 41.0 °F 35.8 °F 32.0 °F 70% 29.55 in 10.0 mi South 8.1 mph - N/A   Clear
11:35 AM 41.0 °F 35.8 °F 32.0 °F 70% 29.54 in 10.0 mi South 8.1 mph - N/A   Clear
11:55 AM 42.8 °F 38.0 °F 32.0 °F 66% 29.54 in 10.0 mi South 8.1 mph - N/A   Clear
12:15 PM 42.8 °F 38.0 °F 32.0 °F 66% 29.53 in 10.0 mi South 8.1 mph - N/A   Clear
12:55 PM 44.6 °F 40.7 °F 32.0 °F 61% 29.51 in 10.0 mi South 6.9 mph - N/A   Scattered Clouds
1:15 PM 44.6 °F 40.2 °F 32.0 °F 61% 29.51 in 10.0 mi SSW 8.1 mph - N/A   Mostly Cloudy
1:35 PM 42.8 °F 38.6 °F 32.0 °F 66% 29.51 in 10.0 mi SSW 6.9 mph - N/A   Overcast
1:55 PM 44.6 °F 42.2 °F 32.0 °F 61% 29.50 in 10.0 mi SSW 4.6 mph - N/A   Overcast
2:15 PM 44.6 °F 43.1 °F 32.0 °F 61% 29.48 in 10.0 mi SW 3.5 mph - N/A   Overcast
2:35 PM 42.8 °F 41.1 °F 32.0 °F 66% 29.49 in 10.0 mi West 3.5 mph - N/A   Overcast
2:55 PM 42.8 °F 38.0 °F 32.0 °F 66% 29.49 in 10.0 mi West 8.1 mph - N/A   Overcast
3:15 PM 42.8 °F 38.0 °F 32.0 °F 66% 29.49 in 10.0 mi West 8.1 mph - N/A Rain Light Rain
3:35 PM 41.0 °F 35.8 °F 32.0 °F 70% 29.49 in 10.0 mi WNW 8.1 mph - N/A   Unknown
3:55 PM 39.2 °F 33.6 °F 32.0 °F 75% 29.49 in 10.0 mi West 8.1 mph - N/A   Overcast
4:15 PM 39.2 °F 33.0 °F 32.0 °F 75% 29.49 in 10.0 mi West 9.2 mph - N/A   Overcast
4:35 PM 37.4 °F 28.9 °F 32.0 °F 81% 29.49 in 7.0 mi West 13.8 mph 17.3 mph N/A Rain Light Rain
4:55 PM 35.6 °F 28.0 °F 32.0 °F 87% 29.50 in 5.0 mi WNW 10.4 mph 18.4 mph N/A Snow Light Snow
5:15 PM 35.6 °F 29.9 °F 32.0 °F 87% 29.50 in 4.0 mi WNW 6.9 mph - N/A Snow Light Snow
5:35 PM 35.6 °F 30.7 °F 32.0 °F 87% 29.50 in 2.5 mi WNW 5.8 mph - N/A Snow Light Snow
5:55 PM 35.6 °F 28.0 °F 32.0 °F 87% 29.50 in 3.0 mi WNW 10.4 mph - N/A Snow Light Snow
6:15 PM 33.8 °F 26.4 °F 32.0 °F 93% 29.50 in 3.0 mi WNW 9.2 mph - N/A Snow Light Snow
6:35 PM 33.8 °F 23.5 °F 32.0 °F 93% 29.50 in 3.0 mi WNW 16.1 mph 23.0 mph N/A Snow Light Snow
6:55 PM 32.0 °F 21.2 °F 32.0 °F 100% 29.50 in 4.0 mi WNW 16.1 mph 25.3 mph N/A Snow Light Snow
7:15 PM 32.0 °F 20.8 °F 30.2 °F 93% 29.51 in 4.0 mi WNW 17.3 mph 24.2 mph N/A Snow Light Snow
7:35 PM 32.0 °F 20.1 °F 28.4 °F 87% 29.51 in 10.0 mi West 19.6 mph 26.5 mph N/A Snow Light Snow
7:55 PM 30.2 °F 17.1 °F 26.6 °F 86% 29.52 in 10.0 mi WNW 21.9 mph 28.8 mph N/A   Overcast
8:15 PM 28.4 °F 16.2 °F 23.0 °F 80% 29.52 in 10.0 mi WNW 17.3 mph 27.6 mph N/A   Overcast
8:35 PM 28.4 °F 15.4 °F 21.2 °F 74% 29.52 in 10.0 mi West 19.6 mph 27.6 mph N/A   Overcast
8:55 PM 26.6 °F 12.4 °F 21.2 °F 80% 29.53 in 10.0 mi West 21.9 mph 31.1 mph N/A   Overcast
9:15 PM 24.8 °F 10.3 °F 19.4 °F 80% 29.54 in 10.0 mi WNW 20.7 mph 34.5 mph N/A   Overcast
9:35 PM 23.0 °F 7.6 °F 17.6 °F 80% 29.55 in 10.0 mi WNW 21.9 mph 32.2 mph N/A   Overcast
9:55 PM 21.2 °F 7.8 °F 15.8 °F 80% 29.56 in 10.0 mi WNW 15.0 mph 33.4 mph N/A   Overcast
10:15 PM 21.2 °F 4.9 °F 15.8 °F 80% 29.57 in 10.0 mi West 23.0 mph 29.9 mph N/A   Overcast
10:55 PM 19.4 °F 2.1 °F 14.0 °F 80% 29.59 in 10.0 mi West 24.2 mph 29.9 mph N/A Snow Light Snow
11:15 PM 19.4 °F 5.0 °F 14.0 °F 80% 29.61 in 10.0 mi WNW 16.1 mph 31.1 mph N/A Snow Light Snow
11:35 PM 19.4 °F 3.6 °F 12.2 °F 74% 29.61 in 10.0 mi West 19.6 mph 32.2 mph N/A Snow Light Snow
11:55 PM 17.6 °F -0.3 °F 12.2 °F 79% 29.62 in 7.0 mi West 24.2 mph 33.4 mph N/A Snow Light Snow